Weather reports worldwide

Advertisment
Gottfrieding, Germany (10872): temperature & dewpoint: 19.08.2019 08:00:00 - 25.08.2019 08:00:00 (CEST)Gottfrieding, Germany (10872): temperature 5cm & temperature -5cm: 19.08.2019 08:00:00 - 25.08.2019 08:00:00 (CEST)Gottfrieding, Germany (10872): temperature -20cm & temperature -100cm: 19.08.2019 08:00:00 - 25.08.2019 08:00:00 (CEST)Gottfrieding, Germany (10872): wind speed & gusts: 19.08.2019 08:00:00 - 25.08.2019 08:00:00 (CEST)Gottfrieding, Germany (10872): wind direction: 19.08.2019 08:00:00 - 25.08.2019 08:00:00 (CEST)Gottfrieding, Germany (10872): reduced air pressure: 19.08.2019 08:00:00 - 25.08.2019 08:00:00 (CEST)Gottfrieding, Germany (10872): visibility: 19.08.2019 08:00:00 - 25.08.2019 08:00:00 (CEST)Gottfrieding, Germany (10872): sunshine duration: 19.08.2019 08:00:00 - 25.08.2019 08:00:00 (CEST)Gottfrieding, Germany (10872): precipitation: 19.08.2019 08:00:00 - 25.08.2019 08:00:00 (CEST)
Date & Time tt [°C] td [°C] tt 5cm [°C] tt -5cm [°C] tt -20cm [°C] tt -100cm [°C] ff [km/h] ff [kn] fx [km/h] fx [kn] dd ppp [hPa] vv [km] sd [min] rr [mm]
25.08.2019 08:00:00 - - - - - - - - - - - - - - -
25.08.2019 07:00:00 14,0 13,8 13,4 18,1 21,5 18,8 3 1 3 2 NNW 1019,4 3,3 0 0,0
25.08.2019 06:00:00 14,7 14,6 13,1 18,5 21,7 18,8 0 0 6 3 N 1019,0 0,2 0 0,0
25.08.2019 05:00:00 15,0 14,7 13,7 19,0 21,9 18,8 3 2 5 3 S 1018,8 3,3 0 0,0
25.08.2019 04:00:00 15,8 15,5 14,5 19,5 22,1 18,8 4 2 5 3 ENE 1018,7 3,2 0 0,0
25.08.2019 03:00:00 16,7 16,6 15,4 20,0 22,4 18,8 6 3 6 4 NE 1018,6 3,4 0 0,0
25.08.2019 02:00:00 17,1 16,8 15,4 20,7 22,6 18,8 2 1 7 4 N 1018,3 3,9 0 0,0
25.08.2019 01:00:00 18,0 17,2 16,7 21,4 22,8 18,8 6 4 8 4 ESE 1018,6 4,8 0 0,0
25.08.2019 00:00:00 18,7 17,7 17,7 22,1 23,0 18,8 5 3 7 4 ENE 1018,4 7 0 0,0
24.08.2019 23:00:00 19,5 18,6 17,7 22,9 23,1 18,8 3 2 9 5 ESE 1018,3 6 0 0,0
24.08.2019 22:00:00 21,0 18,7 19,4 23,9 23,2 18,8 3 2 10 6 E 1018,2 8 0 0,0
24.08.2019 21:00:00 22,0 19,7 20,3 25,1 23,3 18,8 4 2 10 5 ESE 1018,1 8 0 0,0
24.08.2019 20:00:00 24,8 19,2 23,2 27,1 23,2 18,8 5 3 6 4 N 1017,4 11 42 0,0
24.08.2019 19:00:00 27,4 17,6 27,9 29,1 23,0 18,8 3 2 12 6 NNE 1017,0 16 60 0,0
24.08.2019 18:00:00 27,1 18,6 28,6 30,7 22,7 18,8 7 4 16 8 NNE 1017,1 16 60 0,0
24.08.2019 17:00:00 27,5 18,3 30,7 32,0 22,3 18,8 8 4 16 8 NNE 1017,1 13 60 0,0
24.08.2019 16:00:00 27,1 18,4 31,1 32,4 21,8 18,8 11 6 18 10 NNE 1017,6 11 60 0,0
24.08.2019 15:00:00 26,9 17,7 31,1 31,9 21,3 18,8 7 4 16 9 NNE 1018,2 13 60 0,0
24.08.2019 14:00:00 25,5 17,8 29,9 30,6 20,8 18,8 9 5 16 9 NE 1018,6 11 60 0,0
24.08.2019 13:00:00 24,0 16,8 28,2 28,6 20,5 18,8 9 5 17 9 NE 1019,1 10 60 0,0
24.08.2019 12:00:00 24,0 16,9 27,2 26,1 20,2 18,8 13 7 21 12 ENE 1019,4 12 60 0,0
24.08.2019 11:00:00 23,7 16,5 26,2 23,8 20,0 18,8 11 6 17 9 E 1019,7 12 60 0,0
24.08.2019 10:00:00 21,9 15,9 23,8 21,3 20,0 18,8 8 5 13 7 ENE 1020,0 13 60 0,0
24.08.2019 09:00:00 19,3 15,4 20,4 19,4 20,1 18,8 4 2 6 3 NE 1020,4 10 60 0,0
24.08.2019 08:00:00 16,2 14,9 16,3 17,7 20,3 18,8 0 0 4 2 N 1020,8 6 34 0,0
24.08.2019 07:00:00 13,9 13,9 13,2 17,4 20,5 18,8 2 1 3 2 N 1021,3 3,4 0 0,0
24.08.2019 06:00:00 14,3 14,2 12,9 17,7 20,7 18,8 4 2 5 3 SSE 1021,4 3,3 0 0,0
24.08.2019 05:00:00 14,9 14,8 13,7 18,2 20,9 18,8 3 2 6 3 S 1021,3 4,4 0 0,0
24.08.2019 04:00:00 15,1 15,0 14,4 18,6 21,0 18,8 6 3 7 4 W 1021,4 4,2 0 0,0
24.08.2019 03:00:00 15,4 15,1 14,4 19,0 21,2 18,8 3 2 4 2 SE 1021,4 6 0 0,0
24.08.2019 02:00:00 15,9 15,6 14,6 19,6 21,4 18,8 0 0 5 3 N 1021,8 4,2 0 0,0
24.08.2019 01:00:00 17,3 16,9 15,4 20,4 21,5 18,8 3 2 5 3 SSE 1021,9 7 0 0,0
24.08.2019 00:00:00 18,5 17,5 18,3 21,2 21,7 18,8 3 2 4 2 SSE 1022,0 9 0 0,0
23.08.2019 23:00:00 18,9 17,6 18,7 21,6 21,8 18,8 0 0 3 2 N 1022,3 10 0 0,0
23.08.2019 22:00:00 18,1 17,1 17,5 21,8 21,9 18,8 3 2 5 3 SE 1022,7 8 0 0,0
23.08.2019 21:00:00 19,7 17,2 17,7 23,1 21,9 18,8 4 2 6 4 NNW 1022,6 11 0 0,0
23.08.2019 20:00:00 22,5 17,8 21,3 24,5 21,8 18,8 2 1 9 5 E 1022,0 13 24 0,0
23.08.2019 19:00:00 24,2 15,1 24,3 25,9 21,7 18,8 5 3 9 5 ESE 1021,6 17 30 0,0
23.08.2019 18:00:00 24,0 15,5 24,5 26,4 21,5 18,8 6 3 9 5 NNE 1021,8 17 56 0,0
23.08.2019 17:00:00 24,4 15,7 25,8 26,5 21,2 18,8 4 2 14 7 SE 1022,2 25 20 0,0
23.08.2019 16:00:00 23,8 14,7 24,2 27,3 20,9 18,8 11 6 20 11 E 1022,7 17 24 0,0
23.08.2019 15:00:00 24,3 13,9 26,1 27,9 20,6 18,8 13 7 24 13 SE 1023,2 16 44 0,0
23.08.2019 14:00:00 23,9 14,2 26,9 25,2 20,4 18,8 11 6 22 12 ESE 1023,6 22 8 0,0
23.08.2019 13:00:00 22,6 14,4 24,3 24,6 20,1 18,8 12 7 22 12 ESE 1024,2 18 1 0,0
23.08.2019 12:00:00 22,8 13,8 24,0 24,2 19,9 18,8 13 7 21 12 E 1024,4 17 21 0,0
23.08.2019 11:00:00 22,0 14,9 23,0 23,6 19,8 18,8 10 6 18 10 ENE 1024,8 15 57 0,0
23.08.2019 10:00:00 20,2 15,5 22,3 21,1 19,7 18,8 8 4 13 7 NE 1025,3 12 34 0,0
23.08.2019 09:00:00 18,1 15,3 19,0 19,5 19,8 18,8 4 2 6 3 NNE 1025,6 9 26 0,0
23.08.2019 08:00:00 16,8 15,2 16,5 18,2 19,9 18,8 2 1 5 3 NW 1025,7 7 7 0,0
23.08.2019 07:00:00 15,6 15,1 15,5 17,8 20,0 18,8 2 1 6 3 E 1025,7 4,7 0 0,0
23.08.2019 06:00:00 15,3 14,9 15,3 17,8 20,2 18,8 0 0 16 9 N 1025,6 4,8 0 0,0
23.08.2019 05:00:00 14,7 14,4 14,7 17,8 20,4 18,8 5 3 8 4 WNW 1025,9 7 0 0,0
23.08.2019 04:00:00 14,1 14,0 14,2 17,7 20,6 18,8 2 1 4 2 ESE 1026,2 6 0 0,0
23.08.2019 03:00:00 13,4 13,3 12,5 17,7 20,8 18,8 3 2 6 3 S 1026,2 6 0 0,0
23.08.2019 02:00:00 13,9 13,7 12,2 18,3 21,1 18,8 3 2 4 2 WSW 1026,1 7 0 0,0
23.08.2019 01:00:00 15,0 14,3 13,0 19,1 21,3 18,8 3 2 4 2 WSW 1026,0 11 0 0,0
23.08.2019 00:00:00 15,9 14,8 14,5 20,1 21,4 18,8 3 2 6 3 NW 1025,8 11 0 0,0
22.08.2019 23:00:00 18,4 14,9 15,5 21,2 21,6 18,9 5 3 6 4 WSW 1025,6 26 0 0,0
22.08.2019 22:00:00 19,1 15,8 18,5 22,2 21,7 18,9 2 1 8 4 SSW 1025,4 30 0 0,0
22.08.2019 21:00:00 20,0 16,7 19,0 23,2 21,7 18,9 3 2 5 3 NW 1024,7 27 0 0,0
22.08.2019 20:00:00 21,2 17,6 20,7 24,5 21,6 18,9 0 0 5 3 N 1023,8 30 18 0,0
22.08.2019 19:00:00 22,0 13,6 22,9 26,4 21,4 18,9 5 3 11 6 N 1023,6 34 60 0,0
22.08.2019 18:00:00 22,5 12,8 23,8 27,5 21,1 18,9 6 3 14 7 NE 1023,5 41 49 0,0
22.08.2019 17:00:00 22,6 12,9 25,1 28,7 20,7 18,9 7 4 16 8 ENE 1023,5 34 60 0,0
22.08.2019 16:00:00 21,9 12,3 24,8 28,4 20,3 18,9 8 4 18 10 NE 1023,8 43 60 0,0
22.08.2019 15:00:00 21,7 12,7 25,2 26,6 20,0 18,9 9 5 16 9 NE 1024,2 27 55 0,0
22.08.2019 14:00:00 21,1 13,4 23,2 25,1 19,6 18,9 10 5 18 10 NNE 1024,6 24 40 0,0
22.08.2019 13:00:00 20,2 12,8 22,8 24,8 19,3 18,9 10 6 21 11 N 1024,8 32 55 0,0
22.08.2019 12:00:00 19,9 13,0 22,5 23,8 19,1 18,9 11 6 21 12 NE 1025,1 29 56 0,0
22.08.2019 11:00:00 18,9 12,1 21,0 21,4 18,9 18,9 15 8 22 12 NE 1025,3 27 59 0,0
22.08.2019 10:00:00 17,8 12,2 20,2 20,1 18,9 18,9 13 7 19 10 NE 1025,5 21 60 0,0
22.08.2019 09:00:00 15,3 12,1 15,5 17,5 19,0 18,9 7 4 10 5 NE 1026,1 22 48 0,0
22.08.2019 08:00:00 13,7 12,4 13,3 15,6 19,2 18,9 3 2 7 4 NNE 1026,6 14 0 0,0
22.08.2019 07:00:00 11,8 11,6 11,1 15,1 19,4 18,9 4 2 10 5 ESE 1026,2 4,6 0 0,0
22.08.2019 06:00:00 12,0 11,8 10,9 15,5 19,6 18,9 6 3 10 5 ENE 1026,2 7 0 0,0
22.08.2019 05:00:00 12,8 12,5 12,4 16,0 19,8 18,9 6 4 12 7 ENE 1026,0 7 0 0,0
22.08.2019 04:00:00 12,9 12,6 12,5 16,3 20,0 18,9 6 3 10 5 NE 1026,5 6 0 0,0
22.08.2019 03:00:00 13,2 12,8 12,8 16,7 20,2 18,9 7 4 10 6 NE 1026,7 10 0 0,0
22.08.2019 02:00:00 13,3 12,9 13,0 17,0 20,4 18,9 5 3 9 5 NE 1027,1 13 0 0,0
22.08.2019 01:00:00 13,2 12,6 12,7 17,4 20,7 18,9 5 3 9 5 ENE 1027,7 19 0 0,0
22.08.2019 00:00:00 13,9 12,5 12,8 17,9 20,9 18,9 6 3 8 4 NE 1028,0 62 0 0,0
21.08.2019 23:00:00 15,1 13,2 13,4 18,7 21,1 18,9 4 2 9 5 E 1027,5 51 0 0,0
21.08.2019 22:00:00 16,8 13,8 15,3 19,8 21,3 18,9 6 3 10 6 E 1027,6 53 0 0,0
21.08.2019 21:00:00 17,1 14,2 16,8 20,6 21,4 18,9 5 3 9 5 E 1027,3 70 0 0,0
21.08.2019 20:00:00 17,8 13,5 17,6 21,4 21,5 19,0 8 4 16 9 E 1026,8 70 0 0,0
21.08.2019 19:00:00 18,5 13,2 18,5 23,0 21,3 19,0 10 6 27 14 E 1026,6 70 6 0,0
21.08.2019 18:00:00 21,0 12,3 23,0 26,2 21,1 19,0 9 5 16 9 NE 1026,4 52 60 0,0
21.08.2019 17:00:00 20,7 10,7 23,2 27,3 20,7 19,0 8 4 15 8 E 1026,4 30 60 0,0
21.08.2019 16:00:00 20,6 10,9 23,2 27,6 20,3 19,0 7 4 17 9 NE 1026,9 24 60 0,0
21.08.2019 15:00:00 20,2 10,8 23,8 26,9 19,9 19,0 8 4 18 10 E 1027,1 22 46 0,0
21.08.2019 14:00:00 18,8 11,1 21,5 26,6 19,5 19,0 9 5 16 9 NE 1027,6 26 56 0,0
21.08.2019 13:00:00 18,9 11,8 21,4 24,2 19,2 19,0 5 3 13 7 ENE 1027,9 20 40 0,0
21.08.2019 12:00:00 18,1 11,3 21,8 23,7 18,9 19,0 6 3 12 6 E 1028,6 29 51 0,0
21.08.2019 11:00:00 16,8 12,5 19,2 21,5 18,8 19,0 7 4 13 7 NNE 1028,8 19 41 0,0
21.08.2019 10:00:00 15,7 11,6 17,4 19,2 18,8 19,0 5 3 13 7 NW 1028,9 15 44 0,0
21.08.2019 09:00:00 14,5 12,6 15,6 17,0 18,8 19,0 10 5 14 8 WSW 1029,4 8 23 0,0
21.08.2019 08:00:00 13,7 13,4 13,9 15,9 18,9 19,0 6 3 10 6 W 1029,2 5 0 0,0
21.08.2019 07:00:00 13,4 12,8 13,4 15,7 19,1 18,9 7 4 13 7 W 1028,9 6 0 0,0
21.08.2019 06:00:00 13,4 12,9 13,2 15,8 19,2 18,9 9 5 12 6 WSW 1028,7 7 0 0,1
21.08.2019 05:00:00 13,3 12,9 13,2 15,8 19,3 18,9 9 5 13 7 W 1028,3 11 0 0,2
21.08.2019 04:00:00 13,5 12,9 13,4 16,0 19,5 18,9 10 5 15 8 WSW 1028,2 20 0 0,8
21.08.2019 03:00:00 13,6 13,1 13,5 16,1 19,8 18,9 8 4 16 9 W 1027,4 8 0 2,7
21.08.2019 02:00:00 13,6 12,9 13,5 16,5 20,1 18,9 13 7 21 11 WNW 1027,3 3,8 0 3,8
21.08.2019 01:00:00 14,1 13,3 14,0 17,0 20,4 18,9 12 7 34 18 WNW 1026,9 4,2 0 2,1
21.08.2019 00:00:00 14,7 13,3 14,3 17,4 20,6 18,9 21 11 35 19 W 1026,0 11 0 0,0
20.08.2019 23:00:00 14,9 13,5 14,5 17,7 20,8 18,9 17 9 38 20 WNW 1024,7 22 0 0,1
20.08.2019 22:00:00 15,4 13,5 15,4 18,1 21,0 18,9 28 15 47 25 NW 1023,7 23 0 0,0
20.08.2019 21:00:00 16,3 14,0 16,2 18,8 21,2 18,9 29 16 44 24 NW 1022,5 24 0 0,0
20.08.2019 20:00:00 16,8 13,9 16,3 19,7 21,3 18,9 27 15 45 24 NNW 1021,0 19 0 0,0
20.08.2019 19:00:00 18,2 16,8 18,1 20,8 21,4 18,9 14 8 26 14 NW 1020,1 22 0 0,1
20.08.2019 18:00:00 19,2 17,4 19,0 21,7 21,4 18,9 14 8 19 11 WNW 1019,9 25 0 0,0
20.08.2019 17:00:00 20,0 17,6 20,0 22,5 21,4 18,9 7 4 13 7 N 1019,2 30 0 0,0
20.08.2019 16:00:00 20,1 18,3 20,2 22,6 21,3 18,9 8 4 20 11 NW 1019,6 29 0 0,2
20.08.2019 15:00:00 20,2 17,9 20,4 22,9 21,2 18,9 9 5 14 7 NNW 1019,5 20 0 0,0
20.08.2019 14:00:00 20,4 18,0 20,1 23,1 21,1 18,9 7 4 11 6 N 1019,7 15 0 0,4
20.08.2019 13:00:00 21,0 17,6 21,8 23,8 20,9 18,9 6 3 9 5 NW 1019,8 29 2 0,0
20.08.2019 12:00:00 21,0 16,4 22,4 23,8 20,7 18,9 4 2 8 4 NNW 1019,9 31 0 0,0
20.08.2019 11:00:00 20,8 15,7 22,7 23,9 20,6 18,9 5 3 8 4 N 1020,1 54 9 0,0
20.08.2019 10:00:00 20,2 16,1 22,8 22,5 20,5 18,9 4 2 10 5 S 1019,9 21 49 0,0
20.08.2019 09:00:00 19,0 16,6 21,6 19,8 20,6 18,9 4 2 8 4 SSE 1020,1 31 27 0,0
20.08.2019 08:00:00 16,7 16,1 16,6 18,7 20,8 18,8 2 1 6 3 NNE 1020,4 15 2 0,0
20.08.2019 07:00:00 16,4 16,0 16,2 18,4 20,9 18,8 4 2 11 6 WNW 1020,5 18 0 0,0
20.08.2019 06:00:00 16,8 15,8 16,0 18,7 21,1 18,8 10 6 20 11 NNW 1020,0 28 0 0,3
20.08.2019 05:00:00 16,9 16,5 16,7 19,0 21,2 18,8 8 5 19 10 ENE 1019,7 13 0 1,7
20.08.2019 04:00:00 17,7 17,4 17,5 19,4 21,4 18,8 7 4 13 7 SW 1020,6 1,7 0 0,8
20.08.2019 03:00:00 17,6 17,3 17,2 19,6 21,6 18,8 7 4 10 6 W 1020,1 11 0 0,0
20.08.2019 02:00:00 17,7 17,6 17,4 19,8 21,7 18,8 5 3 10 5 S 1019,5 8 0 0,2
20.08.2019 01:00:00 17,7 17,6 17,8 20,1 21,9 18,8 5 3 12 6 ENE 1019,3 5 0 2,1
20.08.2019 00:00:00 18,2 17,9 18,0 20,5 22,1 18,8 6 3 9 5 SSW 1020,3 1,8 0 1,1
19.08.2019 23:00:00 17,9 17,0 17,8 20,8 22,3 18,8 3 2 6 3 W 1019,4 19 0 0,0
19.08.2019 22:00:00 17,9 16,8 16,9 21,2 22,4 18,8 2 1 8 4 NE 1019,1 18 0 0,0
19.08.2019 21:00:00 19,9 16,8 18,1 22,2 22,5 18,8 3 2 10 6 SSW 1018,6 33 0 0,0
19.08.2019 20:00:00 20,3 17,6 19,7 23,4 22,5 18,8 5 3 16 9 N 1017,9 31 0 0,0
19.08.2019 19:00:00 21,8 17,2 21,7 25,5 22,4 18,8 9 5 20 11 NNW 1017,3 44 21 0,0
19.08.2019 18:00:00 23,0 16,9 23,5 26,4 22,2 18,8 4 2 19 10 WNW 1017,0 36 38 0,0
19.08.2019 17:00:00 23,7 16,3 25,7 27,3 22,0 18,7 8 5 13 7 W 1017,2 39 41 0,0
19.08.2019 16:00:00 23,2 16,7 26,8 26,0 21,8 18,7 6 3 12 7 SSE 1017,3 38 13 0,0
19.08.2019 15:00:00 22,1 16,5 23,0 25,1 21,6 18,7 5 3 19 10 W 1017,7 39 0 0,0
19.08.2019 14:00:00 22,1 16,5 23,5 25,8 21,4 18,7 11 6 21 11 W 1017,5 41 24 0,0
19.08.2019 13:00:00 22,2 16,2 25,2 24,5 21,2 18,7 10 5 22 12 SSW 1017,2 36 17 0,0
19.08.2019 12:00:00 20,6 17,2 21,7 22,6 21,2 18,7 8 5 16 9 WSW 1017,9 23 1 0,0
19.08.2019 11:00:00 20,0 17,1 21,9 22,4 21,2 18,7 7 4 12 7 S 1017,2 28 6 0,0
19.08.2019 10:00:00 18,6 17,0 18,7 20,6 21,3 18,7 8 4 16 8 WSW 1017,7 25 0 0,3
19.08.2019 09:00:00 17,9 16,7 17,7 19,9 21,4 18,7 9 5 16 8 WSW 1017,4 16 0 0,2
19.08.2019 08:00:00 17,9 16,8 17,9 19,5 21,6 18,7 7 4 12 6 SSW 1017,5 14 1 0,0

tt = temperature
td = dewpoint
tt 5cm = temperature 5cm
tt -5cm = temperature -5cm
tt -20cm = temperature -20cm
tt -100cm = temperature -100cm
ff = wind speed
fx = gusts
dd = wind direction
ppp = reduced air pressure
vv = visibility
sd = sunshine duration
rr = precipitation

Next stations